Location: Perryvale
(54.4667°N, 113.3833°W)
Time: 00:15:31
(UTC+00:00)

Vanguard 3 - Pass Details

Date: 24 May 2024
Orbit: 509 x 3231 km, 33.3° (Epoch: 21 June)

Event Time Altitude Azimuth Distance (km) Brightness Sun altitude
Rises 04:27:12 0° 244° (WSW) 4,718 11.3 -5.1°
Reaches altitude 10° 04:30:27 10° 233° (SW) 4,098 10.8 -5.4°
Maximum altitude 04:39:51 29° 180° (S) 3,695 10.1 -6.3°
Drops below altitude 10° 04:53:09 10° 130° (SE) 5,879 10.9 -7.5°
Enters shadow 04:56:02 - 126° (SE) 6,475 11.1 -7.7°
